Weather in Mosti

Belarus     53˚24′48″N   24˚32′34″E
temp.,
°C
wind,
m/s
gust,
m/s
humid.,
%
clouds,
%
prec.,
mm/h
press.,
hPa
HPBL,
m
3 december, thu
thu300:00−5˚ese339665 0.0 102569
03:00−5˚se359768 0.0 1024105
06:00−6˚se379763 0.0 1022164
09:00−3˚sse489177 0.1 1021606
12:00−1˚sse61084100 0.0 1020796
15:00se61081100 0.0 1019753
18:00−1˚se7138678 0.0 1018651
21:00se7148788 0.0 1017751
4 december, fri
fri400:00+1˚se81687100 0.0 1016682
03:00+1˚se8168795 0.0 1015647
06:00+2˚se81689100 0.0 1013657
09:00+2˚se71591100 0.0 1013723
12:00+2˚se81593100 0.0 1013763
15:00+3˚se8158998 0.0 1013746
18:00+3˚se81591100 0.0 1013735
21:00+4˚se81789100 0.0 1013758
5 december, sat
sat500:00+5˚se81889100 0.0 1013742
03:00+5˚se8179098 0.0 1014629
06:00+5˚se8169084 0.0 1015625
09:00+6˚se8158990 0.0 1016645
12:00+7˚se71487100 0.0 1017722
15:00+7˚se81583100 0.0 1017723
18:00+7˚se81584100 0.0 1018676
21:00+6˚se8168595 0.0 1019719
6 december, sun
sun600:00+6˚se8168298 0.0 1020697
03:00+5˚se8158384 0.0 1021655
06:00+4˚se8158444 0.0 1021686
09:00+3˚se8168072 0.0 1022694
12:00+2˚se9147890 0.0 1023672
15:00+3˚se8157579 0.0 1022706
18:00+1˚se9177230 0.0 1022700
21:00+1˚se9187116 0.0 1023702
7 december, mon
mon700:00se918640 0.0 1023713
03:00se917630 0.0 1022751
06:00−1˚se917640 0.0 1021794
09:00−1˚se9176212 0.0 1021855
12:00se10155951 0.0 1021934
15:00se9156174 0.0 1021806
18:00se91462100 0.0 1021801
21:00se91559100 0.1 1021782